sat.trackr.live / text

‹ back to catalog

STARLINK-36651

NORAD 67840 · 2026-033V

PAYLOAD ACTIVE UNKNOWN

§ Identity

Operator
Country
US
Launch date
2026-02-16
Launch site
AFETR
Launch vehicle
Mass (kg)
RCS (m²)

Purposes: comms

External: N2YO · Heavens-Above · Gunter

§ Orbital elements

Epoch: 2026-09-19T08:43:49.253664Z

Period
94.27 min
Inclination
43.0028°
Eccentricity
0.0001323
Mean motion
15.27582275 rev/d
Perigee alt
482.1 km
Apogee alt
484.0 km
Semi-major
6,861.2 km
B*
3.5834e-4
RAAN
253.3150°
Arg perigee
271.4757°
Mean anomaly
88.5943°
Rev number
3,429

§ Raw data

STARLINK-366511 67840U 26033V   26262.36376451  .00009612  00000+0  35834-3 0  99952 67840  43.0028 253.3150 0001323 271.4757  88.5943 15.27582275 34294

JSON: /api/v1/satellites/67840 · /tle

For live sub-satellite position, see the globe view (requires WebGL).

§ Visibility from observer

Set your observer location to see the next 7 days of passes ≥ 10°. The values pass through the URL so the page stays shareable.

No JS? Fill the form by hand. The geolocation button needs JavaScript.